Location: downtown San Diego
(32.7310°N, 117.1990°W)
Time: 23:19:27
(UTC-07:00)

ARGOS - Pass Details

Date: 12 July 2018
Orbit: 820 x 835 km, 98.6° (Epoch: 15 July)

Event Time Altitude Azimuth Distance (km) Brightness Sun altitude
Exits shadow 21:06:31 18° 134° (SE) 1,946 4.4 -12.9°
Maximum altitude 21:10:11 42° 72° (ENE) 1,170 3.7 -13.6°
Drops below altitude 10° 21:15:14 10° 3° (N) 2,438 6.1 -14.4°
Sets 21:17:41 0° 356° (N) 3,372 7.0 -14.8°
